Tiempo cada hora Cegielnia

Hoy, 23 Abril, Viernes

Tiempo Temperatura Precipitaciones Viento Presión Humedad
00:00 0°C° 0 mm 3 mps 740 mmHg 87%
01:00 0°C° 0 mm 3 mps 740 mmHg 89%
02:00 0°C° 0 mm 3 mps 740 mmHg 92%
03:00 0°C° 0 mm 3 mps 740 mmHg 94%
04:00 0°C° 0 mm 3 mps 740 mmHg 97%
05:00 0°C° 0 mm 3 mps 740 mmHg 93%
06:00 0°C° 0 mm 4 mps 741 mmHg 89%
07:00 +1°C° 0 mm 4 mps 741 mmHg 85%
08:00 +2°C° 0.2 mm 5 mps 741 mmHg 83%
09:00 +2°C° 0.2 mm 5 mps 741 mmHg 82%
10:00 +3°C° 0.2 mm 6 mps 742 mmHg 80%
11:00 +3°C° 0.2 mm 6 mps 742 mmHg 81%
12:00 +3°C° 0.2 mm 6 mps 742 mmHg 83%
13:00 +3°C° 0.2 mm 6 mps 742 mmHg 84%
14:00 +3°C° 0.1 mm 6 mps 742 mmHg 81%
15:00 +3°C° 0.1 mm 6 mps 742 mmHg 78%
16:00 +3°C° 0.1 mm 6 mps 742 mmHg 76%
17:00 +2°C° 0 mm 5 mps 742 mmHg 77%
18:00 +3°C° 0 mm 4 mps 742 mmHg 79%
19:00 +2°C° 0 mm 3 mps 742 mmHg 80%
20:00 +2°C° 0 mm 3 mps 742 mmHg 84%
21:00 +1°C° 0 mm 3 mps 743 mmHg 87%
22:00 +1°C° 0 mm 2 mps 743 mmHg 90%
23:00 +1°C° 0 mm 2 mps 743 mmHg 89%

Mañana, 24 Abril, Sábado

Tiempo Temperatura Precipitaciones Viento Presión Humedad
00:00 +1°C° 0 mm 2 mps 743 mmHg 88%
01:00 +1°C° 0 mm 2 mps 743 mmHg 87%
02:00 +1°C° 0 mm 2 mps 742 mmHg 86%
03:00 +1°C° 0 mm 2 mps 742 mmHg 84%
04:00 +1°C° 0 mm 2 mps 742 mmHg 82%
05:00 +2°C° 0 mm 2 mps 742 mmHg 78%
06:00 +2°C° 0 mm 3 mps 742 mmHg 74%
07:00 +4°C° 0 mm 3 mps 742 mmHg 69%
08:00 +5°C° 0 mm 4 mps 742 mmHg 65%
09:00 +6°C° 0 mm 4 mps 742 mmHg 60%
10:00 +8°C° 0 mm 5 mps 742 mmHg 55%
11:00 +8°C° 0.1 mm 5 mps 742 mmHg 54%
12:00 +8°C° 0.1 mm 5 mps 742 mmHg 54%
13:00 +8°C° 0.1 mm 5 mps 741 mmHg 53%
14:00 +8°C° 0 mm 5 mps 741 mmHg 54%
15:00 +8°C° 0 mm 5 mps 741 mmHg 56%
16:00 +7°C° 0 mm 5 mps 741 mmHg 58%
17:00 +6°C° 0 mm 4 mps 741 mmHg 63%
18:00 +5°C° 0 mm 3 mps 741 mmHg 68%
19:00 +5°C° 0 mm 2 mps 741 mmHg 74%
20:00 +4°C° 0 mm 2 mps 741 mmHg 76%
21:00 +4°C° 0 mm 2 mps 741 mmHg 79%
22:00 +3°C° 0 mm 2 mps 741 mmHg 82%
23:00 +3°C° 0 mm 2 mps 741 mmHg 81%

Pasado mañana, 25 Abril, Domingo

Tiempo Temperatura Precipitaciones Viento Presión Humedad
00:00 +2°C° 0 mm 2 mps 741 mmHg 80%
01:00 +2°C° 0 mm 2 mps 741 mmHg 78%
02:00 +1°C° 0 mm 2 mps 741 mmHg 77%
03:00 -1°C° 0 mm 2 mps 741 mmHg 75%
04:00 -2°C° 0 mm 2 mps 741 mmHg 74%
05:00 +1°C° 0 mm 2 mps 742 mmHg 66%
06:00 +2°C° 0 mm 2 mps 742 mmHg 58%
07:00 +3°C° 0 mm 2 mps 742 mmHg 51%
08:00 +4°C° 0 mm 2 mps 742 mmHg 46%
09:00 +5°C° 0 mm 3 mps 742 mmHg 40%
10:00 +6°C° 0 mm 4 mps 742 mmHg 35%
11:00 +6°C° 0 mm 4 mps 742 mmHg 35%
12:00 +7°C° 0 mm 4 mps 741 mmHg 34%
13:00 +7°C° 0 mm 4 mps 741 mmHg 33%
14:00 +7°C° 0 mm 5 mps 741 mmHg 35%
15:00 +7°C° 0 mm 5 mps 741 mmHg 37%
16:00 +7°C° 0 mm 5 mps 741 mmHg 39%
17:00 +5°C° 0 mm 4 mps 741 mmHg 45%
18:00 +4°C° 0 mm 3 mps 741 mmHg 51%
19:00 +4°C° 0 mm 2 mps 741 mmHg 58%
20:00 +3°C° 0 mm 2 mps 741 mmHg 61%
21:00 +2°C° 0 mm 2 mps 741 mmHg 64%
22:00 +2°C° 0 mm 1 mps 741 mmHg 66%
23:00 +2°C° 0 mm 1 mps 741 mmHg 67%

26 Abril, Lunes

Tiempo Temperatura Precipitaciones Viento Presión Humedad
00:00 +1°C° 0 mm 2 mps 741 mmHg 67%
01:00 +1°C° 0 mm 2 mps 741 mmHg 67%
02:00 +1°C° 0 mm 2 mps 740 mmHg 69%
03:00 +1°C° 0 mm 2 mps 740 mmHg 72%
04:00 -1°C° 0 mm 2 mps 740 mmHg 74%
05:00 +1°C° 0 mm 2 mps 740 mmHg 71%
06:00 +2°C° 0 mm 2 mps 740 mmHg 68%
07:00 +3°C° 0 mm 2 mps 740 mmHg 65%
08:00 +4°C° 0.1 mm 2 mps 740 mmHg 60%
09:00 +4°C° 0.1 mm 3 mps 740 mmHg 55%
10:00 +5°C° 0.1 mm 3 mps 739 mmHg 50%
11:00 +7°C° 0.1 mm 3 mps 739 mmHg 48%
12:00 +6°C° 0.1 mm 4 mps 739 mmHg 45%
13:00 +7°C° 0.1 mm 4 mps 739 mmHg 42%
14:00 +7°C° 0 mm 4 mps 738 mmHg 41%
15:00 +7°C° 0 mm 4 mps 738 mmHg 40%
16:00 +7°C° 0 mm 5 mps 738 mmHg 39%
17:00 +6°C° 0 mm 4 mps 738 mmHg 44%
18:00 +4°C° 0 mm 3 mps 738 mmHg 49%
19:00 +4°C° 0 mm 2 mps 737 mmHg 53%
20:00 +4°C° 0 mm 1 mps 738 mmHg 55%
21:00 +4°C° 0 mm 1 mps 738 mmHg 57%
22:00 +3°C° 0 mm 1 mps 738 mmHg 58%
23:00 +3°C° 0 mm 1 mps 738 mmHg 60%

27 Abril, Martes

Tiempo Temperatura Precipitaciones Viento Presión Humedad
00:00 +2°C° 0 mm 1 mps 738 mmHg 63%
01:00 +2°C° 0 mm 1 mps 738 mmHg 65%
02:00 +1°C° 0 mm 1 mps 737 mmHg 67%
03:00 0°C° 0 mm 0 mps 737 mmHg 69%
04:00 -1°C° 0 mm 0 mps 737 mmHg 71%
05:00 +1°C° 0 mm 0 mps 737 mmHg 66%
06:00 +3°C° 0 mm 0 mps 737 mmHg 60%
07:00 +4°C° 0 mm 0 mps 737 mmHg 55%
08:00 +6°C° 0 mm 0 mps 737 mmHg 50%
09:00 +8°C° 0 mm 1 mps 737 mmHg 45%
10:00 +10°C° 0 mm 1 mps 737 mmHg 40%
11:00 +10°C° 0 mm 2 mps 736 mmHg 38%
12:00 +10°C° 0 mm 2 mps 736 mmHg 37%
13:00 +12°C° 0 mm 2 mps 735 mmHg 35%
14:00 +12°C° 0 mm 2 mps 735 mmHg 34%
15:00 +13°C° 0 mm 2 mps 734 mmHg 34%
16:00 +12°C° 0 mm 3 mps 734 mmHg 34%
17:00 +10°C° 0 mm 3 mps 733 mmHg 41%
18:00 +9°C° 0 mm 3 mps 733 mmHg 48%
19:00 +7°C° 0 mm 3 mps 733 mmHg 54%
20:00 +7°C° 0 mm 3 mps 733 mmHg 56%
21:00 +6°C° 0 mm 4 mps 733 mmHg 57%
22:00 +5°C° 0 mm 4 mps 733 mmHg 58%
23:00 +5°C° 0 mm 4 mps 732 mmHg 59%

28 Abril, Miércoles

Tiempo Temperatura Precipitaciones Viento Presión Humedad
00:00 +4°C° 0 mm 3 mps 732 mmHg 61%
01:00 +4°C° 0 mm 3 mps 732 mmHg 62%
02:00 +4°C° 0 mm 3 mps 731 mmHg 64%
03:00 +5°C° 0 mm 2 mps 731 mmHg 66%
04:00 +5°C° 0 mm 2 mps 731 mmHg 68%
05:00 +5°C° 0.9 mm 2 mps 731 mmHg 75%
06:00 +6°C° 0.9 mm 1 mps 731 mmHg 81%
07:00 +6°C° 0.9 mm 1 mps 731 mmHg 88%
08:00 +5°C° 1.4 mm 2 mps 731 mmHg 89%
09:00 +5°C° 1.4 mm 2 mps 731 mmHg 90%
10:00 +5°C° 1.4 mm 2 mps 731 mmHg 90%
11:00 +6°C° 0.1 mm 2 mps 731 mmHg 90%
12:00 +6°C° 0.1 mm 2 mps 731 mmHg 89%
13:00 +6°C° 0.1 mm 2 mps 731 mmHg 88%
14:00 +7°C° 0 mm 2 mps 731 mmHg 84%
15:00 +8°C° 0 mm 2 mps 731 mmHg 80%
16:00 +10°C° 0 mm 1 mps 731 mmHg 76%
17:00 +9°C° 0 mm 1 mps 731 mmHg 80%
18:00 +9°C° 0 mm 1 mps 731 mmHg 83%
19:00 +8°C° 0 mm 1 mps 731 mmHg 86%
20:00 +8°C° 0 mm 1 mps 732 mmHg 88%
21:00 +7°C° 0 mm 1 mps 732 mmHg 90%
22:00 +6°C° 0 mm 1 mps 732 mmHg 92%
23:00 +6°C° 0 mm 1 mps 732 mmHg 93%
Mostrar más

Necesitamos Su Consentimiento

Meteoprog y nuestros Proveedores de Servicios pueden almacenar y acceder a sus datos personales como cookies, identificadores de dispositivo u otras tecnologías similares de su dispositivo y procesar dichos datos para personalizar contenido y anuncios, además de ofrecer funciones de redes sociales y analizar el tráfico.

  • Almacenar y/o acceder a información en su dispositivo

    Se puede almacenar o acceder a cookies, identificadores de dispositivo u otra información de su dispositivo para los fines anteriormente indicados.

  • Anuncios y contenido personalizados, medición de anuncios y contenido, percepciones del público, y desarrollo de productos

    Los anuncios y el contenido pueden personalizarse en base a su perfil. Se pueden añadir más datos para personalizar mejor los anuncios y contenidos. Se puede medir el rendimiento de los anuncios y contenidos. Se puede obtener la percepción sobre el público que ha visto los anuncios y contenidos. Dichos datos pueden usarse para desarrollar o mejorar la experiencia del usuario, sistemas y software.

Al hacer clic en ‘Estoy De Acuerdo’ usted permitirá el uso de las cookies, identificadores de dispositivo, balizas web u otras tecnologías similares indicadas. Su configuración puede cambiarse desde el navegador de su dispositivo.

Para ciertos fines, los intereses legítimos pueden ser considerados por encima del consentimiento. Puede leer más sobre ello en nuestra Política de Privacidad y Cookies.